[[{"header":{"parameterUnit":"m.s-1","parameterCategory":1,"la1":30.2991,"la2":30.254,"lo1":-89.0895,"lo2":-89.0444,"dy":0.0017,"dx":0.0017,"nx":28,"ny":28,"refTime":"2023-09-02T03:00:00:Z","depth":0,"parameterNumber":2,"parameterNumberName":"U-component_of_WINDS"},"data":[0,0,0,0,0,0,0,0,0,0,0,0,0,0,0,0,0,0,0,0,0,0,0,0,0,0,0,0,0,0,0,0,0,0,0,0,0,0,0,0,0,0,0,0,0,0,0,0,0,0,0,0,0,0,0,0,0,0,-5.7372,-5.7373,0,-5.7455,-5.7455,-5.7456,-5.7349,-5.7346,-5.7342,-5.7338,-5.7416,-5.7422,-5.7427,0,0,0,0,0,0,0,0,0,0,0,0,0,-5.7119,-5.7124,-5.7372,-5.7373,-5.7375,-5.7454,-5.7456,-5.7457,-5.735,-5.7345,-5.7341,-5.7336,-5.7414,-5.7421,-5.7428,0,0,0,0,0,0,0,0,0,0,0,0,0,-5.7218,-5.7126,-5.7372,-5.7331,-5.7328,-5.7454,-5.7456,-5.7457,-5.7351,-5.7345,-5.734,-5.7334,-5.7412,-5.742,-5.7429,-5.7597,0,0,-5.7455,-5.7458,0,0,0,0,0,0,0,0,-5.7212,-5.7227,-5.7336,-5.7334,-5.7331,-5.7386,-5.7395,-5.7504,-5.7353,-5.7342,-5.7338,-5.7331,-5.741,-5.7419,-5.7446,-5.76,-5.7604,-5.7455,-5.7461,-5.7464,-5.7467,0,0,0,0,0,0,0,-5.7206,-5.7223,-5.7405,-5.7338,-5.7335,-5.7307,-5.7315,-5.7415,-5.7407,-5.7343,-5.7335,-5.7347,-5.7408,-5.7439,-5.7447,-5.7605,-5.7455,-5.7463,-5.7468,-5.7471,-5.7901,-5.7907,0,0,0,0,0,0,-5.7204,-5.7218,-5.7402,-5.7407,-5.7257,-5.7316,-5.7325,-5.7374,-5.7406,-5.7406,-5.7352,-5.7341,-5.7427,-5.7438,-5.745,-5.7647,-5.7464,-5.7472,-5.7477,-5.7894,-5.7902,-5.7909,0,0,0,0,0,0,-5.7199,-5.7222,-5.7399,-5.7311,-5.7331,-5.7327,-5.7383,-5.7379,-5.7409,-5.7413,-5.7411,-5.7384,-5.7423,-5.7438,-5.7561,-5.7648,-5.7476,-5.7484,-5.7887,-5.7897,-5.7905,-5.8044,0,0,0,0,0,0,-5.7192,-5.7221,-5.7285,-5.7313,-5.7336,-5.751,-5.7389,-5.7385,-5.7425,-5.7412,-5.7443,-5.7443,-5.7419,-5.7549,-5.757,-5.7657,-5.749,-5.7879,-5.7891,-5.7902,-5.8031,-5.8057,-5.8078,0,0,0,0,0,-5.7184,-5.7319,-5.7289,-5.7312,-5.7417,-5.7515,-5.7528,-5.7501,-5.7433,-5.7496,-5.7499,-5.7442,-5.7637,-5.7563,-5.7585,-5.7676,-5.7873,-5.7888,-5.7901,-5.802,-5.8052,-5.8078,0,0,0,0,0,0,-5.7298,-5.7322,-5.7288,-5.7438,-5.7476,-5.7497,-5.7576,-5.7535,-5.7591,-5.7576,-5.7538,-5.7546,-5.7678,-5.769,-5.7607,-5.784,-5.7743,-5.7763,-5.7826,-5.7856,-5.7879,-5.7871,-5.7497,0,0,0,0,0,-5.7342,-5.7422,-5.7438,-5.7568,-5.7589,-5.7581,-5.7622,-5.7598,-5.7635,-5.765,-5.7661,-5.7698,-5.7767,-5.7813,-5.7877,-5.8035,-5.8038,-5.8108,-5.8132,-5.8151,-5.8166,-5.8249,-5.8279,-5.7955,-5.7955,-5.7955,0,0,-5.743,-5.7454,-5.7505,-5.7591,-5.7618,-5.7699,-5.7594,-5.7685,-5.7744,-5.7662,-5.7779,-5.779,-5.7828,-5.797,-5.8032,-5.7983,-5.8258,-5.817,-5.8185,-5.8189,-5.8267,-5.8297,-5.8325,-5.7965,-5.7963,-5.7962,0,0,-5.7632,-5.766,-5.777,-5.7801,-5.7844,-5.7838,-5.7865,-5.7894,-5.7898,-5.8017,-5.7957,-5.8027,-5.8148,-5.8177,-5.8208,-5.8427,-5.8375,-5.845,-5.857,-5.8651,-5.8677,-5.8699,-5.8773,-5.8801,-5.8466,-5.8467,-5.8467,0,-5.7736,-5.7858,-5.7832,-5.7927,-5.7966,-5.7901,-5.8011,-5.8041,-5.8102,-5.813,-5.8076,-5.8227,-5.8248,-5.8394,-5.8448,-5.8477,-5.8504,-5.8442,-5.8676,-5.8698,-5.8718,-5.8789,-5.8817,-5.8475,-5.8474,-5.8473,-5.8472,0,-5.7982,-5.8068,-5.8152,-5.8215,-5.8264,-5.8367,-5.8355,-5.8407,-5.8381,-5.8381,-5.8501,-5.8526,-5.8594,-5.8628,-5.8602,-5.8771,-5.8739,-5.8682,-5.8583,-5.8758,-5.8823,-5.885,-5.8487,-5.8484,-5.8481,-5.8479,0,0,-5.8251,-5.8303,-5.8333,-5.8361,-5.8407,-5.8471,-5.8572,-5.8641,-5.8685,-5.8732,-5.8812,-5.8919,-5.8867,-5.8902,-5.888,-5.8952,-5.912,-5.8885,-5.8885,-5.8924,-5.9304,-5.9343,-5.9375,-5.9089,-5.9094,-5.9098,-5.9299,0,-5.845,-5.8624,-5.8606,-5.8771,-5.8849,-5.8791,-5.8878,-5.8915,-5.8919,-5.8984,-5.8988,-5.9063,-5.899,-5.9011,-5.908,-5.9085,-5.9195,-5.9071,-5.916,-5.9163,-5.9146,-5.9409,-5.945,-5.9638,-5.9325,-5.933,-5.9333,0,-5.8703,-5.8761,-5.8935,-5.8969,-5.9001,-5.908,-5.9142,-5.9207,-5.9248,-5.9245,-5.9288,-5.9254,-5.9353,-5.9258,-5.9392,-5.9309,-5.9345,-5.9354,-5.936,-5.9362,-5.9254,-5.9413,-5.9698,-5.9724,-5.9373,-5.937,-5.9367,0,-5.8877,-5.8999,-5.9118,-5.9144,-5.9189,-5.9245,-5.9266,-5.9301,-5.9345,-5.9399,-5.9426,-5.9492,-5.9526,-5.9577,-5.9561,-5.9494,-5.9699,-5.9603,-5.9697,-5.9697,-5.9736,-5.9733,-6.0025,-5.9771,-5.977,-5.9769,-5.9769,0,-5.9097,-5.9204,-5.9196,-5.9269,-5.9388,-5.9367,-5.9485,-5.9498,-5.9531,-5.9604,-5.956,-5.9629,-5.9607,-5.9675,-5.9664,-5.9776,-5.9793,-5.9792,-5.9786,-5.9792,-5.9792,-5.981,-5.9795,-5.9777,-5.9775,-5.9774,-5.9773,0,-5.9307,-5.9307,-5.9432,-5.9467,-5.9478,-5.9563,-5.9591,-5.9659,-5.9662,-5.9756,-5.9776,-5.978,-5.9858,-5.985,-5.9937,-5.993,-6.0067,-6.0049,-6.0053,-6.0047,-6.0139,-6.0129,-6.0449,-6.0488,-6.0214,-6.0216,-6.0219,0,-5.9444,-5.9525,-5.957,-5.9617,-5.9642,-5.9719,-5.9763,-5.9748,-5.9796,-5.9851,-5.9912,-5.9987,-6.0045,-6.0173,-6.0182,-6.0249,-6.0228,-6.0336,-6.0237,-6.024,-6.0223,-6.0216,-6.0223,-6.0353,-6.0356,-6.0359,-6.0361,0,-5.9685,-5.9683,-5.975,-5.9819,-5.9874,-5.9927,-5.9974,-6.0015,-6.0004,-6.0061,-6.0142,-6.0188,-6.0279,-6.0352,-6.0417,-6.0436,-6.0396,-6.0394,-6.0418,-6.0421,-6.0418,-6.0416,-6.01,-6.0384,-6.0382,-6.038,-6.0379,-6.0378,-5.9859,-5.9929,-5.9971,-6.0048,-6.0084,-6.013,-6.0196,-6.0209,-6.0277,-6.0351,-6.0339,-6.0429,-6.0469,-6.0551,-6.0578,-6.0647,-6.0607,-6.0644,-6.0652,-6.0659,-6.0668,-6.0414,-6.066,-6.0659,-6.0658,-6.0658,-6.0657,0,-6.0094,-6.012,-6.0192,-6.0261,-6.0322,-6.0286,-6.0337,-6.0389,-6.047,-6.0513,-6.0573,-6.0666,-6.0738,-6.0756,-6.0826,-6.0878,-6.0861,-6.0896,-6.0888,-6.0893,-6.0702,-6.0671,-6.0908,-6.0908,-6.0908,-6.0908,-6.0908,-6.0908,-6.0222,-6.0337,-6.0341,-6.0473,-6.0498,-6.0588,-6.0621,-6.0663,-6.0697,-6.0804,-6.0865,-6.0878,-6.091,-6.0982,-6.1047,-6.105,-6.1075,-6.1117,-6.1112,-6.0932,-6.0906,-6.0882,-6.0853,-6.1124,-6.1124,-6.1296,-6.1298,-6.1299]},{"header":{"parameterUnit":"m.s-1","parameterCategory":1,"la1":30.2991,"la2":30.254,"lo1":-89.0895,"lo2":-89.0444,"dy":0.0017,"dx":0.0017,"nx":28,"ny":28,"refTime":"2023-09-02T03:00:00:Z","depth":0,"parameterNumber":3,"parameterNumberName":"V-component_of_WINDS"},"data":[0,0,0,0,0,0,0,0,0,0,0,0,0,0,0,0,0,0,0,0,0,0,0,0,0,0,0,0,0,0,0,0,0,0,0,0,0,0,0,0,0,0,0,0,0,0,0,0,0,0,0,0,0,0,0,0,0,0,0.776,0.7759,0,0.7654,0.7652,0.7651,0.7555,0.7554,0.7553,0.7552,0.7437,0.7435,0.7433,0,0,0,0,0,0,0,0,0,0,0,0,0,0.7876,0.7874,0.776,0.7759,0.7757,0.7654,0.7652,0.7651,0.7555,0.7554,0.7553,0.7551,0.7437,0.7435,0.7432,0,0,0,0,0,0,0,0,0,0,0,0,0,0.7803,0.7874,0.776,0.7697,0.7691,0.7654,0.7652,0.7651,0.7556,0.7554,0.7552,0.7551,0.7438,0.7435,0.7432,0.7447,0,0,0.7423,0.7421,0,0,0,0,0,0,0,0,0.7807,0.7799,0.7708,0.7702,0.7694,0.7616,0.7651,0.7582,0.7556,0.7607,0.7552,0.755,0.7497,0.7489,0.7473,0.7442,0.7437,0.7423,0.7421,0.7419,0.7419,0,0,0,0,0,0,0,0.7812,0.7803,0.7718,0.7707,0.7698,0.7673,0.7661,0.7637,0.7562,0.7602,0.7595,0.7584,0.7493,0.7476,0.7469,0.7435,0.7423,0.742,0.7418,0.7417,0.7413,0.7415,0,0,0,0,0,0,0.7828,0.7808,0.7721,0.7714,0.7748,0.7672,0.7659,0.7643,0.7563,0.7549,0.7586,0.758,0.7482,0.7473,0.7465,0.7479,0.7419,0.7417,0.7415,0.7412,0.7414,0.7416,0,0,0,0,0,0,0.7831,0.7821,0.7725,0.7759,0.7745,0.7672,0.7655,0.7642,0.7624,0.755,0.7536,0.7582,0.748,0.7469,0.7453,0.7473,0.7415,0.7412,0.741,0.7412,0.7415,0.7506,0,0,0,0,0,0,0.7834,0.7823,0.7828,0.776,0.7744,0.7717,0.7656,0.7641,0.762,0.7612,0.7543,0.753,0.7478,0.7458,0.745,0.7468,0.741,0.7407,0.7411,0.7414,0.75,0.7511,0.752,0,0,0,0,0,0.7839,0.7856,0.7829,0.7819,0.775,0.7718,0.7709,0.765,0.7622,0.7627,0.758,0.7532,0.7473,0.7458,0.7448,0.7465,0.7406,0.741,0.7414,0.7496,0.7509,0.752,0,0,0,0,0,0,0.7925,0.7846,0.7815,0.7811,0.7773,0.7702,0.7706,0.7665,0.7632,0.7625,0.7553,0.7538,0.7531,0.7496,0.748,0.7476,0.7433,0.7435,0.7499,0.7511,0.752,0.7528,0.7408,0,0,0,0,0,0.7945,0.7927,0.7858,0.7861,0.7844,0.7779,0.7763,0.7722,0.7678,0.7661,0.7612,0.757,0.7542,0.7524,0.7494,0.7496,0.7479,0.7503,0.7513,0.7521,0.7523,0.7523,0.7533,0.7428,0.7428,0.7428,0,0,0.7982,0.7937,0.793,0.7878,0.7843,0.7826,0.7765,0.7749,0.7735,0.7657,0.764,0.7604,0.7551,0.7545,0.754,0.7516,0.7549,0.7526,0.7533,0.753,0.7528,0.7538,0.7547,0.7431,0.7431,0.743,0,0,0.8043,0.8008,0.8007,0.7975,0.7925,0.7882,0.7882,0.7819,0.7792,0.7775,0.7717,0.7699,0.7651,0.7618,0.7594,0.7647,0.7602,0.7639,0.7689,0.769,0.7698,0.7705,0.7724,0.7732,0.7642,0.7642,0.7642,0,0.8096,0.807,0.8011,0.8,0.7979,0.7911,0.791,0.7881,0.7822,0.7809,0.7784,0.7725,0.7685,0.7671,0.7685,0.7668,0.7665,0.7646,0.7702,0.7709,0.7714,0.7732,0.7739,0.7647,0.7646,0.7646,0.7645,0,0.8138,0.8121,0.8126,0.8075,0.8055,0.8048,0.7988,0.7975,0.7937,0.7897,0.788,0.7831,0.7791,0.7785,0.7745,0.7765,0.7752,0.7716,0.7671,0.773,0.7745,0.7751,0.7654,0.7652,0.7651,0.7649,0,0,0.8246,0.8167,0.817,0.8147,0.8088,0.8073,0.8064,0.8028,0.8018,0.7981,0.7971,0.7935,0.7903,0.7876,0.7833,0.7834,0.7881,0.7797,0.7795,0.7815,0.79,0.7928,0.7936,0.7852,0.7853,0.7853,0.7905,0,0.8297,0.828,0.8229,0.8226,0.821,0.8147,0.814,0.8103,0.8066,0.8046,0.8004,0.798,0.7938,0.7922,0.7921,0.7875,0.7897,0.7871,0.7841,0.784,0.7855,0.7944,0.7972,0.8023,0.791,0.7911,0.7912,0,0.8353,0.8324,0.8321,0.8266,0.8257,0.8252,0.8216,0.8198,0.8155,0.8128,0.8102,0.8055,0.8042,0.8002,0.7983,0.7967,0.7952,0.7928,0.7929,0.7922,0.7879,0.794,0.8037,0.8045,0.792,0.792,0.7919,0,0.8434,0.8393,0.8387,0.8369,0.8304,0.8302,0.8275,0.8231,0.8213,0.8181,0.8169,0.8136,0.8117,0.8092,0.8038,0.8013,0.8025,0.798,0.8001,0.8003,0.8005,0.8005,0.8101,0.7997,0.7997,0.7997,0.7997,0,0.8495,0.8495,0.8422,0.8418,0.8417,0.8359,0.8359,0.8325,0.8288,0.8275,0.8219,0.8208,0.8138,0.8119,0.8077,0.8068,0.8059,0.8037,0.8025,0.8041,0.8045,0.8029,0.8024,0.7999,0.7998,0.7998,0.7998,0,0.8583,0.8534,0.8523,0.8465,0.845,0.8452,0.8402,0.8395,0.8357,0.8342,0.8335,0.8274,0.825,0.8194,0.8153,0.8125,0.8127,0.8106,0.8142,0.8135,0.816,0.8158,0.8248,0.8257,0.8149,0.815,0.8151,0,0.8625,0.8624,0.8568,0.8557,0.8533,0.8516,0.8499,0.8442,0.8426,0.838,0.8379,0.8351,0.8325,0.8289,0.824,0.8209,0.8187,0.8221,0.8181,0.8199,0.8187,0.8188,0.8188,0.8229,0.823,0.8231,0.8232,0,0.8704,0.8682,0.866,0.8632,0.8614,0.8588,0.8559,0.8553,0.8489,0.8474,0.845,0.8431,0.8392,0.8364,0.8327,0.8297,0.8254,0.8246,0.8249,0.8265,0.8286,0.8275,0.8165,0.8243,0.8242,0.8241,0.8241,0.824,0.877,0.8768,0.8729,0.8708,0.8681,0.8656,0.8648,0.8611,0.859,0.8556,0.8524,0.8503,0.8462,0.8408,0.8382,0.8364,0.8342,0.8347,0.8348,0.835,0.8358,0.8291,0.8357,0.8357,0.8357,0.8356,0.8356,0,0.8847,0.882,0.8802,0.8765,0.8749,0.8714,0.868,0.8668,0.8652,0.8619,0.8596,0.857,0.8544,0.8495,0.8465,0.846,0.844,0.8454,0.8453,0.8447,0.8379,0.8379,0.8471,0.8471,0.8471,0.8471,0.8471,0.8471,0.8885,0.8879,0.8853,0.8834,0.8806,0.8788,0.8772,0.8749,0.8723,0.8697,0.8676,0.8646,0.8606,0.8573,0.8548,0.8534,0.8526,0.8546,0.8526,0.8463,0.8452,0.8441,0.8441,0.8545,0.8545,0.8596,0.8597,0.8597]}]]